Powrót do katalogu

COSMOS 1710

GLONASS

AktywnyNawigacjaMEO
NORAD 16396·PAYLOAD·🇷🇺 Russia

Wystrzelony Dec 24, 1985 z Baikonur Cosmodrome

Loading…

Następne Przeloty (najbliższe 24 godziny)

TLE

ŚwieżeSource: Space-Track

Epoka: Sep 11, 2026, 05:29 UTC

1 16396U 85118A   26254.22878286 -.00000053  00000-0  00000-0 0  9999
2 16396  65.9993 321.3929 0014030 200.9652 157.6906  2.13103299316957

Śledź COSMOS 1710 w czasie rzeczywistym z AllMySat

Download on the App Store